K5BOU Weather Reports


Display with metric or nautical units.
time (UTC)temp
F
wind
direction
speed
MPH
gust
MPH
rain 1hr
in
rain 24hr
in
rain mn
in
humidity
%
barometer
mb
20260507204128 78 169 0.0 2.0 0.00 0.00 0.00 77 1011.6
20260507203626 78 186 0.0 2.0 0.00 0.00 0.00 77 1011.7
20260507203123 78 222 0.0 2.0 0.00 0.00 0.00 78 1011.8
20260507202619 78 140 1.0 7.0 0.00 0.00 0.00 77 1011.8
20260507202115 78 44 2.0 5.0 0.00 0.00 0.00 78 1012.0
20260507201610 78 187 0.0 3.0 0.00 0.00 0.00 77 1011.9
20260507201108 78 113 2.0 3.0 0.00 0.00 0.00 77 1012.0
20260507200603 78 168 3.0 7.0 0.00 0.00 0.00 76 1012.0
20260507200059 79 204 1.0 5.0 0.00 0.00 0.00 76 1011.8
20260507195557 79 192 0.0 3.0 0.00 0.00 0.00 77 1011.8
20260507195054 78 23 1.0 5.0 0.00 0.00 0.00 77 1012.1
20260507194550 78 85 2.0 3.0 0.00 0.00 0.00 77 1012.1
20260507194046 77 148 2.0 2.0 0.00 0.00 0.00 78 1012.0
20260507193543 77 279 3.0 8.0 0.00 0.00 0.00 79 1012.2
20260507193040 76 77 1.0 5.0 0.00 0.00 0.00 78 1012.3
20260507192536 76 71 3.0 5.0 0.00 0.00 0.00 79 1012.5
20260507192033 75 59 3.0 6.0 0.00 0.00 0.00 79 1012.5
20260507191529 75 12 3.0 6.0 0.00 0.00 0.00 79 1012.7
20260507191026 75 95 4.0 8.0 0.00 0.00 0.00 78 1012.9
20260507190523 75 150 1.0 5.0 0.00 0.00 0.00 80 1012.8
20260507190022 75 23 3.0 7.0 0.00 0.00 0.00 79 1013.1
20260507185520 74 189 1.0 7.0 0.00 0.00 0.00 81 1013.1
20260507185016 73 31 1.0 7.0 0.00 0.00 0.00 81 1013.2
20260507184515 74 191 1.0 5.0 0.00 0.00 0.00 80 1013.2
20260507184012 73 161 1.0 6.0 0.00 0.00 0.00 82 1013.1
20260507183508 73 333 3.0 6.0 0.00 0.00 0.00 81 1013.2
20260507183005 74 313 4.0 6.0 0.00 0.00 0.00 79 1013.2
20260507182501 75 221 0.0 6.0 0.00 0.00 0.00 79 1013.3
20260507181957 74 125 0.0 8.0 0.00 0.00 0.00 81 1013.1
20260507181454 74 38 1.0 5.0 0.00 0.00 0.00 81 1013.3
20260507180950 73 92 1.0 5.0 0.00 0.00 0.00 81 1013.4
20260507180447 73 129 0.0 3.0 0.00 0.00 0.00 80 1013.4
20260507175943 73 50 5.0 7.0 0.00 0.00 0.00 82 1013.3
20260507175440 72 17 2.0 6.0 0.00 0.00 0.00 82 1013.4
20260507174938 72 10 4.0 6.0 0.00 0.00 0.00 83 1013.4
20260507174435 72 100 1.0 2.0 0.00 0.00 0.00 83 1013.6
20260507173932 71 167 1.0 5.0 0.00 0.00 0.00 85 1013.5
20260507173429 70 197 1.0 3.0 0.00 0.00 0.00 85 1013.7
20260507172926 69 199 1.0 2.0 0.00 0.00 0.00 86 1013.8
20260507172422 69 220 0.0 2.0 0.00 0.00 0.00 86 1014.1
20260507171919 69 162 0.0 3.0 0.00 0.00 0.00 86 1014.0
20260507171415 69 175 2.0 3.0 0.00 0.00 0.00 86 1014.1
20260507170913 69 99 1.0 6.0 0.00 0.00 0.00 87 1014.1
20260507170409 69 167 0.0 3.0 0.00 0.00 0.00 86 1013.9
20260507165905 68 188 1.0 5.0 0.00 0.00 0.00 87 1014.1
20260507165401 68 22 1.0 3.0 0.00 0.00 0.00 88 1014.1
20260507164857 68 120 0.0 3.0 0.00 0.00 0.00 88 1014.1
20260507164354 68 84 0.0 6.0 0.00 0.00 0.00 87 1014.2
20260507163851 68 313 4.0 7.0 0.00 0.00 0.00 87 1014.1
20260507163349 68 69 1.0 5.0 0.00 0.00 0.00 87 1014.1
20260507162845 68 305 3.0 3.0 0.00 0.00 0.00 87 1014.1
20260507162340 68 134 0.0 3.0 0.00 0.00 0.00 87 1013.9
20260507161838 69 117 2.0 6.0 0.00 0.00 0.00 87 1013.7
20260507161334 68 71 1.0 6.0 0.00 0.00 0.00 87 1013.7
20260507160831 67 61 1.0 6.0 0.00 0.00 0.00 88 1013.5
20260507160327 67 150 0.0 5.0 0.00 0.00 0.00 89 1013.4
20260507155823 67 68 3.0 5.0 0.00 0.00 0.00 88 1013.6
20260507155319 67 26 2.0 5.0 0.00 0.00 0.00 89 1013.7
20260507154816 67 121 1.0 5.0 0.00 0.00 0.00 89 1013.9
20260507154313 67 126 3.0 6.0 0.00 0.00 0.00 89 1013.7
20260507153810 67 80 1.0 6.0 0.00 0.00 0.00 89 1013.6
20260507153306 67 43 0.0 3.0 0.00 0.00 0.00 89 1013.6
20260507152803 66 11 5.0 8.0 0.00 0.00 0.00 89 1013.4
20260507152259 66 62 3.0 5.0 0.00 0.00 0.00 90 1013.4
20260507151755 66 123 2.0 5.0 0.00 0.00 0.00 91 1013.7
20260507151252 65 144 0.0 3.0 0.00 0.00 0.00 92 1013.9
20260507150749 65 167 0.0 2.0 0.00 0.00 0.00 93 1013.6
20260507150246 65 161 1.0 5.0 0.00 0.00 0.00 94 1014.1
20260507145742 65 78 0.0 5.0 0.00 0.00 0.00 94 1014.0
20260507145238 65 142 1.0 5.0 0.00 0.00 0.00 94 1014.1
20260507144735 65 80 0.0 7.0 0.00 0.00 0.00 94 1014.2
20260507144233 66 176 1.0 5.0 0.00 0.00 0.00 94 1014.0
20260507143729 66 163 1.0 5.0 0.00 0.00 0.00 93 1014.0
20260507143227 66 149 1.0 2.0 0.00 0.00 0.00 93 1013.8
20260507142723 66 123 1.0 7.0 0.00 0.00 0.00 93 1013.7
20260507142220 66 166 2.0 8.0 0.00 0.00 0.00 93 1013.4
20260507141715 66 54 1.0 8.0 0.00 0.00 0.00 93 1013.3
20260507141213 66 80 0.0 3.0 0.00 0.00 0.00 93 1013.1
20260507140708 65 76 3.0 7.0 0.00 0.00 0.00 93 1012.8
20260507140206 66 158 0.0 6.0 0.00 0.00 0.00 93 1013.2
20260507135703 65 91 1.0 6.0 0.00 0.00 0.00 93 1013.1
20260507135201 65 57 3.0 8.0 0.00 0.00 0.00 93 1012.9
20260507134657 65 81 3.0 9.0 0.00 0.00 0.00 93 1012.9
20260507134153 65 28 2.0 7.0 0.00 0.00 0.00 93 1012.7
20260507133649 65 143 2.0 7.0 0.00 0.00 0.00 93 1013.0
20260507133146 65 24 3.0 7.0 0.00 0.00 0.00 94 1013.1
20260507132644 65 121 2.0 8.0 0.00 0.00 0.00 94 1013.1
20260507132139 66 348 1.0 5.0 0.00 0.00 0.00 94 1013.1
20260507131637 66 100 2.0 6.0 0.00 0.00 0.00 95 1013.5
20260507131134 66 26 7.0 9.0 0.00 0.00 0.00 95 1013.5
20260507130630 66 71 2.0 10.0 0.00 0.00 0.00 95 1013.7
20260507130129 66 78 2.0 5.0 0.00 0.00 0.00 95 1013.2
20260507125627 66 283 2.0 5.0 0.00 0.00 0.00 95 1013.5
20260507125124 66 150 1.0 3.0 0.00 0.00 0.00 95 1013.5
20260507124620 66 114 2.0 5.0 0.00 0.00 0.00 95 1013.5
20260507124118 66 173 0.0 1.0 0.00 0.00 0.00 95 1013.4
20260507123616 66 117 0.0 5.0 0.00 0.00 0.00 95 1013.3
20260507123113 66 320 5.0 6.0 0.00 0.00 0.00 95 1013.4
20260507122608 66 185 1.0 3.0 0.00 0.00 0.00 95 1013.3
20260507122104 67 7 1.0 7.0 0.00 0.00 0.00 95 1012.9
20260507121601 67 157 4.0 8.0 0.00 0.00 0.00 94 1012.7
20260507121056 67 190 0.0 2.0 0.00 0.00 0.00 94 1012.4
20260507120552 67 3 1.0 3.0 0.00 0.00 0.00 94 1012.7
20260507120049 67 209 0.0 1.0 0.00 0.00 0.00 94 1012.4
20260507115546 67 43 0.0 1.0 0.00 0.00 0.00 94 1012.5
20260507115042 67 25 0.0 2.0 0.00 0.00 0.00 94 1012.5
20260507114537 67 325 1.0 1.0 0.00 0.00 0.00 94 1012.4
20260507114035 67 325 1.0 1.0 0.00 0.00 0.00 94 1012.2
20260507113532 67 325 1.0 1.0 0.00 0.00 0.00 94 1012.1
20260507113029 67 17 0.0 2.0 0.00 0.00 0.00 94 1011.9
20260507112527 67 141 3.0 5.0 0.00 0.00 0.00 94 1011.9
20260507112023 67 111 1.0 2.0 0.00 0.00 0.00 94 1012.0
20260507111521 67 150 0.0 0.0 0.00 0.00 0.00 94 1011.9
20260507111017 67 80 0.0 5.0 0.00 0.00 0.00 94 1011.5
20260507110514 67 149 0.0 1.0 0.00 0.00 0.00 94 1011.2
20260507110010 67 165 0.0 1.0 0.00 0.00 0.00 94 1011.3
20260507105507 67 163 0.0 1.0 0.00 0.00 0.00 94 1011.4
20260507105003 67 85 1.0 2.0 0.00 0.00 0.00 93 1011.8
20260507104501 67 144 0.0 1.0 0.00 0.00 0.00 93 1011.5
20260507103956 67 30 1.0 3.0 0.00 0.00 0.00 93 1011.3
20260507103453 67 172 1.0 2.0 0.00 0.00 0.00 93 1011.7
20260507102949 67 164 0.0 3.0 0.00 0.00 0.00 93 1011.3
20260507102446 67 186 0.0 2.0 0.00 0.00 0.00 93 1011.3
20260507101943 67 129 1.0 3.0 0.00 0.00 0.00 94 1011.3
20260507101438 67 144 0.0 2.0 0.00 0.00 0.00 94 1011.2
20260507100934 67 155 0.0 2.0 0.00 0.00 0.00 94 1011.4
20260507100432 67 128 0.0 1.0 0.00 0.00 0.00 94 1011.3
20260507095930 67 24 0.0 2.0 0.00 0.00 0.00 94 1011.2
20260507095427 67 125 1.0 5.0 0.00 0.00 0.00 94 1010.9
20260507094924 67 177 0.0 1.0 0.00 0.00 0.00 94 1011.2
20260507094420 67 175 0.0 6.0 0.00 0.00 0.00 94 1010.9
20260507093917 67 201 1.0 3.0 0.00 0.00 0.00 94 1010.9
20260507093415 67 158 0.0 1.0 0.00 0.00 0.00 94 1010.8
20260507092914 67 176 0.0 1.0 0.00 0.00 0.00 94 1010.7
20260507092409 67 172 0.0 1.0 0.00 0.00 0.00 94 1010.7
20260507091906 66 149 0.0 1.0 0.00 0.00 0.00 93 1010.4
20260507091402 67 48 0.0 2.0 0.00 0.00 0.00 93 1010.9
20260507090858 67 272 2.0 3.0 0.00 0.00 0.00 93 1010.7
20260507090355 67 146 0.0 6.0 0.00 0.00 0.00 93 1010.8
20260507085852 67 158 0.0 1.0 0.00 0.00 0.00 93 1010.5
20260507085348 67 171 0.0 1.0 0.00 0.00 0.00 93 1010.7
20260507084846 67 83 0.0 2.0 0.00 0.00 0.00 93 1010.7
20260507084342 67 132 2.0 6.0 0.00 0.00 0.00 92 1010.9
20260507083840 67 178 0.0 2.0 0.00 0.00 0.00 92 1010.7
20260507083336 67 169 1.0 2.0 0.00 0.00 0.00 92 1011.1
20260507082832 67 265 2.0 8.0 0.00 0.00 0.00 92 1011.0
20260507082328 67 3 2.0 2.0 0.00 0.00 0.00 92 1010.9
20260507081825 67 89 3.0 5.0 0.00 0.00 0.00 92 1010.8
20260507081321 67 209 0.0 2.0 0.00 0.00 0.00 92 1010.6
20260507080818 67 86 0.0 1.0 0.00 0.00 0.00 92 1010.8
20260507080314 67 126 0.0 2.0 0.00 0.00 0.00 92 1010.7
20260507075810 67 210 1.0 5.0 0.00 0.00 0.00 92 1011.0
20260507075307 67 162 0.0 2.0 0.00 0.00 0.00 92 1010.8
20260507074803 67 162 0.0 0.0 0.00 0.00 0.00 92 1011.0
20260507074301 67 88 1.0 2.0 0.00 0.00 0.00 91 1011.2
20260507073757 67 138 0.0 2.0 0.00 0.00 0.00 91 1011.2
20260507073254 67 138 0.0 7.0 0.00 0.00 0.00 91 1011.2
20260507072751 67 91 1.0 7.0 0.00 0.00 0.00 91 1011.2
20260507072249 68 112 2.0 8.0 0.00 0.00 0.00 91 1011.3
20260507071746 68 48 2.0 6.0 0.00 0.00 0.00 91 1011.0
20260507071242 68 95 0.0 6.0 0.00 0.00 0.00 91 1011.1
20260507070739 68 144 1.0 6.0 0.00 0.00 0.00 91 1011.1
20260507070236 68 247 3.0 5.0 0.00 0.00 0.00 92 1011.5
20260507065733 68 25 0.0 2.0 0.00 0.00 0.00 91 1011.2
20260507065230 68 173 1.0 5.0 0.00 0.00 0.00 91 1011.0
20260507064727 68 155 1.0 3.0 0.00 0.00 0.00 91 1011.1
20260507064226 68 185 3.0 6.0 0.00 0.00 0.00 91 1011.5
20260507063723 68 171 2.0 5.0 0.00 0.00 0.00 91 1011.0
20260507063219 68 299 4.0 5.0 0.00 0.00 0.00 91 1011.0
20260507062716 69 149 0.0 2.0 0.00 0.00 0.00 91 1011.0
20260507062214 69 151 0.0 1.0 0.00 0.00 0.00 91 1011.5
20260507061712 69 151 0.0 1.0 0.00 0.00 0.00 91 1011.3
20260507061209 69 151 0.0 1.0 0.00 0.00 0.00 91 1010.9
20260507060707 69 151 0.0 1.0 0.00 0.00 0.00 91 1010.9
20260507060203 69 151 0.0 1.0 0.00 0.00 0.00 91 1010.7
20260507055659 69 151 0.0 1.0 0.00 0.00 0.00 91 1010.8
20260507055155 69 151 0.0 5.0 0.00 0.00 0.00 91 1011.0
20260507054651 69 123 1.0 2.0 0.00 0.00 0.00 91 1010.9
20260507054148 69 176 1.0 3.0 0.00 0.00 0.00 91 1011.2
20260507053646 69 196 0.0 7.0 0.00 0.00 0.00 91 1011.0
20260507053144 69 113 0.0 5.0 0.00 0.00 0.00 91 1010.7
20260507052643 69 171 2.0 7.0 0.00 0.00 0.00 91 1010.5
20260507052138 70 179 1.0 6.0 0.00 0.00 0.00 91 1010.4
20260507051636 70 53 3.0 5.0 0.00 0.00 0.00 91 1010.6
20260507051132 70 303 3.0 5.0 0.00 0.00 0.00 91 1010.5
20260507050630 70 118 2.0 5.0 0.00 0.00 0.00 90 1010.7
20260507050126 70 164 0.0 2.0 0.00 0.00 0.00 90 1010.7
20260507045623 70 141 0.0 5.0 0.00 0.00 0.00 90 1010.6
20260507045120 70 170 0.0 6.0 0.00 0.00 0.00 90 1010.8
20260507044617 70 256 3.0 6.0 0.00 0.00 0.00 90 1010.7
20260507044114 70 35 1.0 3.0 0.00 0.00 0.00 90 1010.5
20260507043609 71 214 4.0 5.0 0.00 0.00 0.00 89 1010.6
20260507043107 71 195 2.0 3.0 0.00 0.00 0.00 89 1010.6
20260507042602 71 312 6.0 7.0 0.00 0.00 0.00 89 1010.7
20260507042058 71 277 1.0 3.0 0.00 0.00 0.00 89 1010.8
20260507041555 71 144 0.0 2.0 0.00 0.00 0.00 89 1010.7
20260507041052 71 198 1.0 3.0 0.00 0.00 0.00 89 1010.7
20260507040549 71 73 2.0 7.0 0.00 0.00 0.00 89 1010.4
20260507040045 72 316 8.0 9.0 0.00 0.00 0.00 89 1010.6
20260507035541 72 118 1.0 3.0 0.00 0.00 0.00 89 1010.7
20260507035038 72 209 2.0 7.0 0.00 0.00 0.00 89 1010.8
20260507034534 72 37 2.0 8.0 0.00 0.00 0.00 89 1010.7
20260507034032 72 10 5.0 8.0 0.00 0.00 0.00 88 1010.5
20260507033530 72 103 2.0 9.0 0.00 0.00 0.00 89 1010.5
20260507033027 73 34 1.0 5.0 0.00 0.00 0.00 89 1010.4
20260507032524 73 336 3.0 9.0 0.00 0.00 0.00 89 1010.3
20260507032020 73 337 1.0 7.0 0.00 0.00 0.00 89 1010.1
20260507031516 73 309 4.0 8.0 0.00 0.00 0.00 89 1010.1
20260507031014 73 325 3.0 3.0 0.00 0.00 0.00 89 1010.0
20260507030511 73 244 1.0 6.0 0.00 0.00 0.00 89 1009.7
20260507030008 73 296 5.0 9.0 0.00 0.00 0.00 89 1009.6
20260507025505 73 354 6.0 8.0 0.00 0.00 0.00 88 1009.7
20260507025003 73 310 7.0 9.0 0.00 0.00 0.00 88 1009.6
20260507024500 73 332 3.0 7.0 0.00 0.00 0.00 88 1009.5
20260507023956 73 78 5.0 7.0 0.00 0.00 0.00 88 1009.5
20260507023453 73 160 1.0 7.0 0.00 0.00 0.00 88 1009.4
20260507022950 74 260 6.0 13.0 0.00 0.00 0.00 88 1008.9
20260507022447 74 196 2.0 8.0 0.00 0.00 0.00 89 1009.0
20260507021942 74 300 2.0 7.0 0.00 0.00 0.00 89 1008.7
20260507021438 74 315 1.0 7.0 0.00 0.00 0.00 89 1008.6
20260507020936 75 203 4.0 6.0 0.00 0.00 0.00 89 1008.4
20260507020432 75 20 1.0 6.0 0.00 0.00 0.00 89 1008.4
20260507015929 75 317 3.0 3.0 0.00 0.00 0.00 89 1008.3
20260507015428 75 298 2.0 5.0 0.00 0.00 0.00 90 1008.3
20260507014924 76 14 3.0 3.0 0.00 0.00 0.00 90 1008.2
20260507014421 76 78 1.0 1.0 0.00 0.00 0.00 90 1008.0
20260507013917 76 83 3.0 5.0 0.00 0.00 0.00 90 1008.3
20260507013414 76 165 3.0 9.0 0.00 0.00 0.00 90 1008.3
20260507012912 76 255 2.0 3.0 0.00 0.00 0.00 90 1008.0
20260507012408 76 229 1.0 5.0 0.00 0.00 0.00 90 1007.9
20260507011905 76 173 4.0 6.0 0.00 0.00 0.00 90 1007.8
20260507011402 77 255 3.0 6.0 0.00 0.00 0.00 91 1007.7
20260507010901 77 261 4.0 6.0 0.00 0.00 0.00 90 1007.8
20260507010357 77 327 1.0 3.0 0.00 0.00 0.00 90 1007.6
20260507005854 77 215 1.0 5.0 0.00 0.00 0.00 90 1007.6
20260507005351 77 333 3.0 3.0 0.00 0.00 0.00 90 1007.4
20260507004842 77 346 5.0 9.0 0.00 0.00 0.00 90 1007.3
20260507004339 78 252 3.0 5.0 0.00 0.00 0.00 90 1007.0
20260507003836 82 305 5.0 7.0 0.00 0.00 0.00 93 1007.0
20260507003332 82 198 1.0 2.0 0.00 0.00 0.00 94 1006.6
20260507002827 82 169 1.0 2.0 0.00 0.00 0.00 94 1006.6
20260507002323 82 189 0.0 0.0 0.00 0.00 0.00 94 1006.5
20260507001821 83 196 2.0 2.0 0.00 0.00 0.00 94 1006.6
20260507001318 83 153 1.0 3.0 0.00 0.00 0.00 93 1006.5
20260507000814 83 170 1.0 3.0 0.00 0.00 0.00 93 1006.4
20260507000310 83 163 3.0 6.0 0.00 0.00 0.00 93 1006.7
20260506235807 83 195 2.0 5.0 0.00 0.00 0.00 93 1006.1
20260506235306 83 158 2.0 5.0 0.00 0.00 0.00 92 1006.4
20260506234759 83 196 4.0 6.0 0.00 0.00 0.00 92 1006.5
20260506234257 83 179 2.0 5.0 0.00 0.00 0.00 92 1006.4
20260506233754 0 0.0 0.0 0.00 0.00 0.00 1006.3
20260506233250 0 0.0 0.0 0.00 0.00 0.00 1006.3
20260506232747 0 0.0 0.0 0.00 0.00 0.00 1006.3
20260506232242 0 0.0 0.0 0.00 0.00 0.00 1006.3
20260506231739 0 0.0 0.0 0.00 0.00 0.00 1006.2
20260506231238 0 0.0 0.0 0.00 0.00 0.00 1006.2
20260506230734 0 0.0 0.0 0.00 0.00 0.00 1006.0
20260506230231 0 0.0 0.0 0.00 0.00 0.00 1005.8
20260506225728 0 0.0 0.0 0.00 0.00 0.00 1005.9
20260506225225 0 0.0 0.0 0.00 0.00 0.00 1006.0
20260506224721 0 0.0 0.0 0.00 0.00 0.00 1005.9
20260506224218 0 0.0 0.0 0.00 0.00 0.00 1006.0
20260506223714 0 0.0 0.0 0.00 0.00 0.00 1006.1
20260506223210 0 0.0 0.0 0.00 0.00 0.00 1005.9
20260506222708 0 0.0 0.0 0.00 0.00 0.00 1005.9
20260506222203 0 0.0 0.0 0.00 0.00 0.00 1005.9
20260506221701 0 0.0 0.0 0.00 0.00 0.00 1005.8
20260506221159 0 0.0 0.0 0.00 0.00 0.00 1006.0
20260506220655 0 0.0 0.0 0.00 0.00 0.00 1005.8
20260506220150 0 0.0 0.0 0.00 0.00 0.00 1005.7
20260506215648 0 0.0 0.0 0.00 0.00 0.00 1005.6
20260506215143 0 0.0 0.0 0.00 0.00 0.00 1005.8
20260506214640 0 0.0 0.0 0.00 0.00 0.00 1005.7
20260506214137 0 0.0 0.0 0.00 0.00 0.00 1005.7
20260506213636 0 0.0 0.0 0.00 0.00 0.00 1005.7
20260506213132 0 0.0 0.0 0.00 0.00 0.00 1006.0
20260506212630 0 0.0 0.0 0.00 0.00 0.00 1006.0
20260506212124 0 0.0 0.0 0.00 0.00 0.00 1005.8
20260506211620 0 0.0 0.0 0.00 0.00 0.00 1006.0
20260506211117 0 0.0 0.0 0.00 0.00 0.00 1005.9
20260506210614 0 0.0 0.0 0.00 0.00 0.00 1006.3
20260506210110 0 0.0 0.0 0.00 0.00 0.00 1006.0
20260506205608 0 0.0 0.0 0.00 0.00 0.00 1006.3
20260506205102 0 0.0 0.0 0.00 0.00 0.00 1006.1
20260506204601 0 0.0 0.0 0.00 0.00 0.00 1006.3